Regional Weather Roundup
Issued by NWS Sterling, VA

Home | Current Version | Previous Version | Graphics & Text | Print | Product List | Glossary On
Versions: 1 2 3 4 5 6 7 8 9 10 11 12 13 14 15 16 17 18 19 20 21 22 23 24 25 26 27 28 29 30 31 32 33 34 35 36 37 38 39 40 41 42 43 44 45 46 47 48 49 50
000
ASUS41 KLWX 011910
RWRLWX

REGIONAL WEATHER ROUNDUP
NATIONAL WEATHER SERVICE BALTIMORE MD/WASHINGTON DC
300 PM EDT MON SEP 01 2014

Note: "FAIR" indicates few or no clouds below 12,000 feet
with no significant weather and/or obstructions to visibility.
 TC=TEMPERATURE CELSIUS

 * =Non NWS site. Station does not report precipitation (e.g. rain,
    snow, etc.), thunder, or fog.

DCZ001-MDZ009-015-VAZ040>042-051-053>054-012000-
WASHINGTON METRO

CITY           SKY/WX    TMP DP  RH WIND       PRES   REMARKS
WASHINGTON NAT PTSUNNY   91  74  57 VRB5      29.96F HX 100
DULLES         PTSUNNY   87  70  56 CALM      29.98F HX  92
ANDREWS AFB    MOSUNNY   89  74  59 S7        29.97F HX  98
QUANTICO       CLOUDY    88  73  61 NE7       29.98F HX  95
COLLEGE PARK*  MOSUNNY   90  70  51 W5        29.96F HX  95
LEESBURG*      TSTM      82  77  83 NW20G26   30.01R HX  91
MANASSAS*      PTSUNNY   88  72  58 W3        29.98  HX  94
GAITHERSBURG*  MOSUNNY   88  72  58 W7        30.01F HX  94

$$

MDZ006>007-011-014-012000-
BALTIMORE METRO

CITY           SKY/WX    TMP DP  RH WIND       PRES   REMARKS
BWI AIRPORT    PTSUNNY   87  70  56 S7        29.96F HX  92
MD SCIENCE CTR   N/A     90  73  57 MISG      29.95F HX  98
MARTIN STATE   MOSUNNY   86  79  79 SE8       29.97F HX  99
ANNAPOLIS      PTSUNNY   83  76  79 SE14      29.96F HX  91
FORT MEADE*    PTSUNNY   86  72  62 SW6       29.98F HX  92

$$

MDZ012-015-019>023-012000-
MARYLAND EASTERN SHORE

CITY           SKY/WX    TMP DP  RH WIND       PRES   REMARKS
OCEAN CITY     MOSUNNY   83  76  79 S7        29.99F HX  91
SALISBURY      SUNNY     92  71  50 SW10G20   29.98F HX  98
BAY BRIDGE AP*   N/A     86  72  62 SE9       29.97F HX  92
EASTON*        MOSUNNY   91  73  55 W7        30.01F HX 100

$$

MDZ017>025-012000-
SOUTHERN MARYLAND

CITY           SKY/WX    TMP DP  RH WIND       PRES   REMARKS
PATUXENT RIVER MOSUNNY   93  69  45 SW10      29.96F HX  98
ST INIGOES     MOSUNNY   89  72  56 VRB3      29.96F HX  96
LEONARDTOWN*   SUNNY     90  68  48 SW12      29.99F HX  93

$$

MDZ003>005-012000-
NORTH CENTRAL MARYLAND

CITY           SKY/WX    TMP DP  RH WIND       PRES   REMARKS
FREDERICK*     CLOUDY    82  75  78 MISG      30.02R
HAGERSTOWN APT PTSUNNY   86  70  58 SW12G20   29.99F HX  90
WESTMINSTER*   MOSUNNY   86  72  62 W5        30.00F HX  92

$$

MDZ501>502-012000-
WESTERN MARYLAND

CITY           SKY/WX    TMP DP  RH WIND       PRES   REMARKS
OAKLAND*       MOSUNNY   73  72  94 W12G18    30.12F
CUMBERLAND*    MOSUNNY   88  68  51 W7        30.04F HX  91

$$

VAZ025>031-012000-
SHENANDOAH VALLEY

CITY           SKY/WX    TMP DP  RH WIND       PRES   REMARKS
WINCHESTER*    CLOUDY    82  72  69 S3        30.00F
STAUNTON*      MOSUNNY   89  65  44 SW12      30.05F HX  91

$$

WVZ021-048>050-054>055-012000-
EASTERN WEST VIRGINIA PANHANDLE

CITY           SKY/WX    TMP DP  RH WIND       PRES   REMARKS
MARTINSBURG    PTSUNNY   90  66  45 W10       29.99F HX  92
PETERSBURG*    NOT AVBL

$$

VAZ036>039-050-012000-
CENTRAL FOOTHILLS

CITY           SKY/WX    TMP DP  RH WIND       PRES   REMARKS
CHARLOTTESVILL PTSUNNY   90  69  50 SW7       30.00F HX  94
ORANGE*        PTSUNNY   90  68  48 S10       30.01F HX  93

$$

VAZ055>057-012000-
NORTH AND CENTRAL PIEDMONT

CITY           SKY/WX    TMP DP  RH WIND       PRES   REMARKS
FREDERICKSBRG* MOSUNNY   92  71  51 SW7       29.96F HX  98
STAFFORD*      MOSUNNY   90  75  61 W5        30.02F HX 100

$$

NCZ024-NYZ072-PAZ021-071-VAZ022-071-012000-
OTHER REGIONAL OBSERVATIONS

CITY           SKY/WX    TMP DP  RH WIND       PRES   REMARKS
NEW YORK CITY  PTSUNNY   85  69  58 CALM      29.98F
PHILADELPHIA   MOSUNNY   88  70  55 SW10      29.96F HX  93
PITTSBURGH     PTSUNNY   83  68  60 SW10      29.98F
ROANOKE        MOSUNNY   87  65  47 NW7       30.09F
RICHMOND       PTSUNNY   95  67  39 W10G21    29.98F HX  99
RALEIGH        PTSUNNY   91  71  51 SW9       30.06F HX  97

$$

ANZ530>537-012000-
MARINE OBSERVATIONS

STATION/POSITION TIME  TEMP    WIND        PRES
                       AIR SEA DIR/SP/G
                 (UTC) (F)     (DEG/KT/KT) (MB)
THOMAS PT LIGHT  1900   81 80  170/ 12/ 13 1015.5F
BALT KEY BRIDGE  1900          110/  9/ 11 1014.2F
COVE POINT       1900   80     170/ 12/ 15 1014.9F
LEWISETTA        1900   90 83  250/ 12/ 16 1014.3F
SOLOMONS ISLAND  1900      80                N/A
PINEY POINT      1900          360/  5/  6   N/A

$$



USA.gov is the U.S. government's official web portal to all federal, state and local government web resources and services.